Weather Roundup
Issued by NWS

Home | Current Version | Previous Version | Graphics & Text | Print | Product List | Glossary On
Versions: 1 2 3 4 5 6 7 8 9 10 11 12 13 14 15 16 17 18 19 20 21 22 23 24 25 26 27 28 29 30 31 32 33 34 35 36 37 38 39 40 41 42 43 44 45 46 47 48 49 50
283
NZUS93 KARX 191710
HRRWXR

CURRENT HOURLY OBSERVATIONS ACROSS
MUCH OF THE UPPER MISSISSIPPI VALLEY
NATIONAL WEATHER SERVICE LA CROSSE WI
1200 PM CDT TUE SEP 19 2017


...SOUTHEAST MINNESOTA...


CITY           SKY/WX    TMP DP  RH WIND       PRES   REMARKS
ROCHESTER      MOSUNNY   71  64  78 SE14      29.92F
ROCHESTER/MAYO FAIR      69  63  79 SE8G16    29.93S
WINONA         SUNNY     72  61  68 SE8       29.93F
AUSTIN         SUNNY     73  63  68 SE9       29.90F
ALBERT LEA     MOSUNNY   73  66  78 S13       29.89F
DODGE CENTER   PTSUNNY   73  63  68 SE12      29.91S
PRESTON        MOSUNNY   71  62  74 S9        29.94F
OWATONNA       SUNNY     73  64  73 SE13G20   29.89F
FARIBAULT      CLOUDY    73  64  73 SE15      29.89S
$$

...ELSEWHERE IN MINNESOTA...


CITY           SKY/WX    TMP DP  RH WIND       PRES   REMARKS
MINNEAPOLIS    PTSUNNY   72  64  76 SE12      29.88F
INTNL FALLS    CLOUDY    62  57  83 SE10      29.88F
DULUTH         CLOUDY    63  59  87 E13       29.93F
RED WING       SUNNY     72  61  68 SE10      29.89F
REDWOOD FALLS  CLOUDY    69  64  84 SE16G25   29.79F
MANKATO        CLOUDY    71  64  78 SE16      29.86F
WORTHINGTON    CLOUDY    68  65  90 SE14G23   29.81F
FAIRMONT       CLOUDY    71  65  81 SE18G26   29.85F
$$

...SOUTHWEST WISCONSIN...


CITY           SKY/WX    TMP DP  RH WIND       PRES   REMARKS
LA CROSSE      SUNNY     75  62  64 E8        29.93F
PRAIRIE DU CHI SUNNY     75  60  58 SE7       29.94F
BOSCOBEL       SUNNY     77  62  59 E7        29.95F
LONE ROCK      SUNNY     75  62  64 VRB7      29.97S
PLATTEVILLE    SUNNY     74  65  72 E5        29.97S
FORT MC COY    SUNNY     73  61  66 E6        29.96F
CAMP DOUGLAS   SUNNY     73  61  64 E9        29.97F
MAUSTON-NEW LI SUNNY     73  60  65 SE8       29.97F
VIROQUA        FAIR      73  64  74 E7        29.97S
WIS DELLS      SUNNY     73  57  56 E8        29.98F
$$

...ELSEWHERE IN WISCONSIN...


CITY           SKY/WX    TMP DP  RH WIND       PRES   REMARKS
MILWAUKEE      CLOUDY    71  67  87 E9        29.98F FOG
MADISON        SUNNY     75  60  59 E8        29.97F
GREEN BAY      CLOUDY    68  64  87 E6        30.01F
EAU CLAIRE     SUNNY     71  60  68 SE7       29.93F
BLACK RVR FLS  FAIR      73  58  58 E3        29.95F
MEDFORD        SUNNY     69  56  63 SE8       29.98F
WAUSAU         SUNNY     71  57  61 E9        29.98F
WIS RAPIDS     SUNNY     75  52  44 VRB6      29.99F
MARSHFIELD     SUNNY     71  55  56 E8        29.98F
RICE LAKE      SUNNY     70  58  65 E9        29.95F
$$

...NORTHEAST IOWA...


CITY           SKY/WX    TMP DP  RH WIND       PRES   REMARKS
WATERLOO       MOSUNNY   71  64  78 SE10      29.92F
DUBUQUE        SUNNY     72  63  73 E6        29.97F
DECORAH        MOSUNNY   70  63  78 SE9       29.94F
MASON CITY     MOSUNNY   75  64  68 S16G22    29.91F
CHARLES CITY   MOSUNNY   73  66  78 SE14G21   29.92F
OELWEIN        SUNNY     72  68  88 SE9       29.95F
$$

...ELSEWHERE IN IOWA...


CITY           SKY/WX    TMP DP  RH WIND       PRES   REMARKS
DES MOINES     PTSUNNY   74  67  78 E10       29.88F
IOWA CITY      CLOUDY    71  67  87 SE9       29.96F FOG
FORT DODGE     PTSUNNY   72  65  78 SE15G21   29.86F
MARSHALLTOWN   CLOUDY    74  67  78 SE14      29.91S
CEDAR RAPIDS   CLOUDY    67  66  97 SE9       29.95S FOG
$$

...NORTHERN ILLINOIS...


CITY           SKY/WX    TMP DP  RH WIND       PRES   REMARKS
CHICAGO-OHARE  CLOUDY    75  65  70 VRB5      29.95F
CHICAGO-MIDWAY PTSUNNY   74  67  78 E5        29.95F
MOLINE         SUNNY     75  64  68 E8        29.95F
ROCKFORD       MOSUNNY   74  63  68 E6        29.97F
PEORIA         CLOUDY    75  67  76 VRB3      29.96F
$$

NOTE: "FAIR" INDICATES FEW OR NO CLOUDS BELOW 12,000 FEET WITH NO
SIGNIFICANT WEATHER AND/OR OBSTRUCTIONS TO VISIBILITY. WIND
SPEEDS ARE IN MILES-PER-HOUR.




USA.gov is the U.S. government's official web portal to all federal, state and local government web resources and services.